This is the latest recevied weather packets stored in our database for station/object F4DVI. If no packets are shown the sender has not sent any weather packets the latest 10 day(s).
| Time | Temp. | Humidity | Pressure | Rain* | Wind** | Luminosity | Snow |
|---|---|---|---|---|---|---|---|
| 1777892316 | 20° C | 69% | 0 hPa | 0 mm | - | - | - |
| 1777892016 | 20° C | 70% | 0 hPa | 0 mm | - | - | - |
| 1777891716 | 20° C | 70% | 0 hPa | 0 mm | - | - | - |
| 1777891416 | 20.56° C | 69% | 0 hPa | 0 mm | - | - | - |
| 1777891115 | 20° C | 69% | 0 hPa | 0 mm | - | - | - |
| 1777890816 | 20° C | 69% | 0 hPa | 0 mm | - | - | - |
| 1777890515 | 20° C | 70% | 0 hPa | 0 mm | - | - | - |
| 1777890216 | 20° C | 68% | 0 hPa | 0 mm | - | - | - |
| 1777889916 | 20.56° C | 69% | 0 hPa | 0 mm | - | - | - |
| 1777889616 | 21.11° C | 69% | 0 hPa | 0 mm | - | - | - |
| 1777889316 | 21.11° C | 68% | 0 hPa | 0 mm | - | - | - |
| 1777889016 | 21.11° C | 65% | 0 hPa | 0 mm | - | - | - |
| 1777888716 | 21.67° C | 67% | 0 hPa | 0 mm | - | - | - |
| 1777888416 | 22.22° C | 69% | 0 hPa | 0 mm | - | - | - |
| 1777888116 | 21.67° C | 70% | 0 hPa | 0 mm | - | - | - |
| 1777887816 | 21.67° C | 71% | 0 hPa | 0 mm | - | - | - |
| 1777887516 | 21.67° C | 72% | 0 hPa | 0 mm | - | - | - |
| 1777887216 | 21.11° C | 74% | 0 hPa | 0 mm | - | - | - |
| 1777886916 | 21.11° C | 74% | 0 hPa | 0 mm | - | - | - |
| 1777886616 | 20.56° C | 75% | 0 hPa | 0 mm | - | - | - |
| 1777886316 | 20.56° C | 77% | 0 hPa | 0 mm | - | - | - |
| 1777886016 | 19.44° C | 77% | 0 hPa | 0 mm | - | - | - |
| 1777885716 | 18.89° C | 77% | 0 hPa | 0 mm | - | - | - |
| 1777885416 | 19.44° C | 77% | 0 hPa | 0 mm | - | - | - |
| 1777885116 | 19.44° C | 79% | 0 hPa | 0 mm | - | - | - |
* Rain latest hour (hover to see other rain measurements)
** Current wind speed in m/s (hover to see current wind gust speed)